Regional Weather Roundup
Issued by NWS Albany, NY

Home | Current Version | Previous Version | Graphics & Text | Print | Product List | Glossary Off
Versions: 1 2 3 4 5 6 7 8 9 10 11 12 13 14 15 16 17 18 19 20 21 22 23 24 25 26 27 28 29 30 31 32 33 34 35 36 37 38 39 40 41 42 43 44 45 46 47 48 49

000
ASUS41 KALY 012010
RWRALY

NEW YORK STATE HOURLY WEATHER ROUNDUP
NATIONAL WEATHER SERVICE ALBANY NY
400 PM EDT WED OCT 01 2014

NOTE: "FAIR" INDICATES FEW OR NO CLOUDS BELOW 12,000 FEET WITH NO
SIGNIFICANT WEATHER AND/OR NO OBSTRUCTIONS TO VISIBILITY.

NYZ032-033-038>043-046>054-057>066-NYZ062>081-012100-
EAST


CITY           SKY/WX    TMP DP  RH WIND       PRES   REMARKS
ALBANY         CLOUDY    64  56  75 N5        30.08S
GLENS FALLS    CLOUDY    65  53  65 NE5       30.08S
POUGHKEEPSIE   PTSUNNY   65  60  84 N6        30.04F
NEWBURGH       CLOUDY    63  59  88 NE9G17    30.06
MONTGOMERY     CLOUDY    64  58  80 NE8       30.05S
WHITE PLAINS   CLOUDY    63  59  87 NE7       30.03S
ISLIP          LGT RAIN  62  59  90 NE10      30.00S FOG
NEW YORK CITY  CLOUDY    64  58  80 NE10      30.03S
CENTRAL PARK   CLOUDY    63  59  87 N7        30.06S FOG
$$

NYZ005>009-017-018-044>046-055-056-012100-
CENTRAL


CITY           SKY/WX    TMP DP  RH WIND       PRES   REMARKS
FULTON         MOSUNNY   68  59  73 NW10      30.05S
SYRACUSE       PTSUNNY   74  57  55 E8        30.03S
ROME           MOSUNNY   69  57  65 SE12      30.07S
ELMIRA         SUNNY     71  57  61 CALM      30.03F
BINGHAMTON     MOSUNNY   68  54  60 E9        30.05S
MONTICELLO     CLOUDY    61  57  88 E3        30.08F
$$

NYZ026>034-041>043-012100-
NORTH


CITY           SKY/WX    TMP DP  RH WIND       PRES   REMARKS
WATERTOWN      SUNNY     71  55  56 N13       30.05S
FORT DRUM      NOT AVBL
MASSENA        MOSUNNY   63  54  72 NE14      30.11F
SARANAC LAKE   PTSUNNY   62  53  72 NE9       30.08S
PLATTSBURGH    CLOUDY    59  52  77 N6        30.12S
$$

NYZ001>004-010>016-019>021-012100-
WEST


CITY           SKY/WX    TMP DP  RH WIND       PRES   REMARKS
NIAGARA FALLS  PTSUNNY   67  59  75 NE8       30.04S
BUFFALO        MOSUNNY   68  59  73 NE8       30.04S
DUNKIRK        SUNNY     70  60  70 N8        30.02F
JAMESTOWN      CLOUDY    68  55  64 SE3       30.05S
WELLSVILLE     MOSUNNY   65  55  70 E6        30.08F
ROCHESTER      CLOUDY    68  59  73 CALM      30.05F
PENN YAN       CLOUDY    70  59  68 VRB3      30.05F
$$

             KEY
       WCI = WIND CHILL INDEX
       VSB = VISIBILITY
       HX  = HEAT INDEX
$$



USA.gov is the U.S. government's official web portal to all federal, state and local government web resources and services.